Location: Holcomb Observatory and Planetarium
(39.8415°N, 86.1714°W)
Time: 09:40:26
(UTC-04:00)

ISS - Visible Passes

Search period start: 01 May 2016 00:00
Search period end: 11 May 2016 00:00
Orbit: 402 x 405 km, 51.6° (Epoch: 01 May)

Date Brightness Start Highest point End Pass type
(mag) Time Alt. Az. Time Alt. Az. Time Alt. Az.
07 May -0.6 05:25:16 10° SSE 05:26:34 12° SE 05:27:51 10° ESE visible
08 May -2.9 06:06:54 10° SW 06:10:05 59° SE 06:13:20 10° ENE visible
09 May -1.8 05:15:52 17° S 05:17:40 28° SE 05:20:32 10° ENE visible
10 May -0.9 04:25:26 15° SE 04:25:26 15° SE 04:27:14 10° E visible
10 May -3.0 05:58:12 10° WSW 06:01:25 55° NW 06:04:39 10° NE visible
